Location: Izdebno
(52.6670°N, 16.2170°E)
Time: 04:30:43
(UTC+02:00)

Transit 2A - Pass Details

Date: 29 February 2024
Orbit: 596 x 956 km, 66.7° (Epoch: 21 April)

Event Time Altitude Azimuth Distance (km) Brightness Sun altitude
Rises 01:59:32 0° 321° (NW) 2,948 - -39.7°
Reaches altitude 10° 02:01:50 10° 328° (NNW) 2,076 - -39.5°
Maximum altitude 02:06:21 46° 42° (NE) 935 - -39.1°
Drops below altitude 10° 02:11:19 10° 116° (ESE) 2,273 - -38.6°
Sets 02:13:55 0° 122° (ESE) 3,259 - -38.3°
